CET,Max TemperatureF,Mean TemperatureF,Min TemperatureF,Max Dew PointF,MeanDew PointF,Min DewpointF,Max Humidity, Mean Humidity, Min Humidity, Max Sea Level PressureIn, Mean Sea Level PressureIn, Min Sea Level PressureIn, Max VisibilityMiles, Mean VisibilityMiles, Min VisibilityMiles, Max Wind SpeedMPH, Mean Wind SpeedMPH, Max Gust SpeedMPH,PrecipitationIn, CloudCover, Events, WindDirDegrees
2013-12-1,44,32,19,36,27,19,100,86,61,30.33,30.28,30.27,6,3,2,12,3,,0.00,1,,272
2013-12-2,50,37,24,36,30,23,100,83,50,30.60,30.41,30.27,6,6,6,12,4,,0.00,1,,311
2013-12-3,39,30,19,28,22,18,93,77,52,30.63,30.56,30.48,6,5,4,8,4,,0.00,1,,100
2013-12-4,26,22,17,27,23,16,100,98,93,30.48,30.31,30.18,4,1,0,8,3,,0.00,7,Fog-Snow,199
2013-12-5,42,35,28,34,30,25,100,82,65,30.27,30.15,29.89,6,6,4,20,11,,0.00,3,,268
2013-12-6,42,36,30,34,28,23,100,71,46,29.89,29.84,29.77,6,6,4,32,14,47,0.00,4,Rain-Snow,260
2013-12-7,39,36,32,30,25,21,87,66,52,30.21,30.06,29.89,6,6,2,36,25,50,0.00,4,Snow,281
2013-12-8,41,37,33,37,34,28,100,86,76,30.33,30.27,30.18,6,6,5,15,9,,0.00,6,,247
2013-12-9,46,40,33,41,36,28,93,79,66,30.30,30.19,30.12,6,6,6,30,13,41,0.00,6,,264
2013-12-10,44,34,21,39,27,18,93,76,60,30.74,30.55,30.27,6,6,6,16,10,,0.00,5,,79
2013-12-11,35,27,19,27,22,16,93,80,56,30.74,30.66,30.60,6,6,4,7,3,,0.00,5,,197
2013-12-12,35,32,28,34,30,23,100,89,75,30.60,30.51,30.42,6,4,2,8,3,,0.00,8,,255
2013-12-13,33,32,30,32,31,30,100,96,87,30.42,30.35,30.33,5,4,3,6,4,,0.00,8,,5
2013-12-14,32,30,28,32,30,27,100,96,86,30.48,30.39,30.33,5,3,2,8,4,,0.00,8,,197
2013-12-15,37,34,30,36,33,28,100,99,93,30.57,30.51,30.45,4,2,0,9,6,,0.00,8,Fog,195
2013-12-16,33,32,30,34,33,30,100,100,100,30.69,30.63,30.57,2,1,0,8,4,,0.00,8,Fog,144
2013-12-17,33,32,30,34,31,28,100,97,87,30.66,30.62,30.54,4,2,0,10,7,,0.00,8,Fog,152
2013-12-18,30,28,26,30,28,25,100,97,93,30.54,30.43,30.33,5,2,2,8,7,,0.00,8,Snow,139
2013-12-19,30,28,26,30,28,25,100,97,93,30.33,30.22,30.15,4,2,0,10,8,,0.00,8,Fog,133
2013-12-20,30,28,26,30,28,27,100,99,93,30.48,30.35,30.21,2,1,0,9,7,,0.00,8,Fog,106
2013-12-21,42,32,23,36,31,23,100,95,70,30.63,30.58,30.48,6,3,0,9,5,,0.00,5,Fog,135
2013-12-22,33,32,30,34,31,30,100,100,93,30.60,30.46,30.33,2,2,0,10,8,,0.00,8,Fog,83
2013-12-23,41,36,32,39,36,32,100,98,87,30.33,30.30,30.27,3,2,0,8,4,,0.00,8,Fog,52
2013-12-24,42,38,33,39,35,30,100,95,81,30.30,30.15,30.01,5,1,0,12,7,,0.00,6,Fog,94
2013-12-25,51,42,32,36,32,27,93,70,47,30.01,29.87,29.77,5,5,4,17,11,,0.00,,,136
2013-12-26,48,42,35,43,38,34,93,84,76,29.77,29.67,29.59,6,6,5,14,9,,0.00,6,Rain,85
2013-12-27,51,43,35,43,41,36,100,85,67,30.01,29.85,29.68,6,6,3,10,7,,0.00,6,Rain,79
2013-12-28,50,41,32,45,39,32,100,97,76,30.04,30.01,29.98,5,3,1,9,4,,0.00,2,Fog,106
2013-12-29,42,37,32,43,37,32,100,100,93,30.21,30.07,29.98,5,2,0,9,4,,0.00,4,Fog,73
2013-12-30,46,39,32,43,40,32,100,95,81,30.36,30.31,30.21,6,6,4,10,4,,0.00,5,Rain,320
2013-12-31,39,36,33,39,36,32,100,98,87,30.33,30.27,30.24,5,2,1,10,6,,0.00,7,Fog,82